IRS-P2

operational
NORAD ID: 23323 Int'l Des: 1994-068 Owner: ISRO Country: IN
LEOCIRCULARRETROGRADESSO

关于 IRS-P2

正在加载描述...

实时位置

正在加载3D地球...

即将过境

高度历史

Altitude vs Time

uPlot chart will show altitude changes over time

两行轨道根数

1 23323U 94068A 26063.13376816 .00000187 00000-0 10036-3 0 9991
2 23323 98.9090 112.2616 0001151 94.5807 265.5503 14.24637375630108
Epoch: Mar 4, 2026 • Age: 16 hours

当前状态

高度 838.7 km
速度 7.43 km/s
星下点 -80.66°S, 175°E
发射日期 Oct 15, 1994
运行时间 31.3 years
类型 other

技术详情

分类 Payload
质量 805.00 kg
干质量 750.00 kg
总质量 805.00 kg
长度 1.60 m
直径 1.10 m
跨度 12.00 m
形状 Box + 2 Pan
制造商 ISAC/HAL
平台类型 IRS
阶段状态 In Orbit
所有者/国家 ISRO/IN

大型星座

Loading constellations...